TimeCDT,TemperatureF,Dew PointF,Humidity,Sea Level PressureIn,VisibilityMPH,Wind Direction,Wind SpeedMPH,Gust SpeedMPH,PrecipitationIn,Events,Conditions,WindDirDegrees,DateUTC
12:15 AM,46.4,41.0,81,30.13,10.0,NNW,4.6,-,N/A,,Clear,340,2013-09-14 05:15:00
12:35 AM,46.4,41.0,81,30.13,10.0,NNW,4.6,-,N/A,,Clear,340,2013-09-14 05:35:00
12:55 AM,44.6,41.0,87,30.13,10.0,Calm,Calm,-,N/A,,Clear,0,2013-09-14 05:55:00
1:15 AM,44.6,39.2,81,30.13,10.0,Calm,Calm,-,N/A,,Clear,0,2013-09-14 06:15:00
1:35 AM,44.6,39.2,81,30.13,10.0,Calm,Calm,-,N/A,,Clear,0,2013-09-14 06:35:00
1:55 AM,44.6,39.2,81,30.14,10.0,Calm,Calm,-,N/A,,Clear,0,2013-09-14 06:55:00
2:15 AM,44.6,39.2,81,30.14,10.0,Calm,Calm,-,N/A,,Clear,0,2013-09-14 07:15:00
2:35 AM,44.6,39.2,81,30.15,10.0,WNW,3.5,-,N/A,,Clear,300,2013-09-14 07:35:00
2:55 AM,44.6,39.2,81,30.14,10.0,Calm,Calm,-,N/A,,Clear,0,2013-09-14 07:55:00
3:15 AM,44.6,39.2,81,30.15,10.0,Calm,Calm,-,N/A,,Clear,0,2013-09-14 08:15:00
3:35 AM,42.8,37.4,81,30.14,10.0,Calm,Calm,-,N/A,,Clear,0,2013-09-14 08:35:00
3:55 AM,42.8,37.4,81,30.15,10.0,Calm,Calm,-,N/A,,Clear,0,2013-09-14 08:55:00
4:15 AM,42.8,37.4,81,30.15,4.0,Calm,Calm,-,N/A,,Clear,0,2013-09-14 09:15:00
4:35 AM,42.8,37.4,81,30.15,2.5,Calm,Calm,-,N/A,,Clear,0,2013-09-14 09:35:00
4:55 AM,42.8,37.4,81,30.15,10.0,Calm,Calm,-,N/A,,Clear,0,2013-09-14 09:55:00
5:15 AM,41.0,37.4,87,30.15,5.0,Calm,Calm,-,N/A,,Clear,0,2013-09-14 10:15:00
5:35 AM,42.8,37.4,81,30.16,4.0,Calm,Calm,-,N/A,,Clear,0,2013-09-14 10:35:00
5:55 AM,39.2,35.6,87,30.16,1.2,Calm,Calm,-,N/A,,Clear,0,2013-09-14 10:55:00
6:15 AM,41.0,37.4,87,30.16,10.0,Calm,Calm,-,N/A,,Clear,0,2013-09-14 11:15:00
6:35 AM,39.2,37.4,93,30.17,7.0,Calm,Calm,-,N/A,,Clear,0,2013-09-14 11:35:00
6:55 AM,41.0,37.4,87,30.17,4.0,Calm,Calm,-,N/A,,Clear,0,2013-09-14 11:55:00
7:15 AM,42.8,39.2,87,30.18,7.0,Calm,Calm,-,N/A,,Clear,0,2013-09-14 12:15:00
7:35 AM,44.6,42.8,93,30.18,10.0,Calm,Calm,-,N/A,,Clear,0,2013-09-14 12:35:00
7:55 AM,46.4,42.8,87,30.18,10.0,Calm,Calm,-,N/A,,Clear,0,2013-09-14 12:55:00
8:15 AM,48.2,42.8,82,30.19,10.0,SE,3.5,-,N/A,,Clear,130,2013-09-14 13:15:00
8:35 AM,51.8,44.6,76,30.19,10.0,SE,4.6,-,N/A,,Clear,140,2013-09-14 13:35:00
8:55 AM,53.6,44.6,72,30.20,10.0,SE,6.9,-,N/A,,Clear,130,2013-09-14 13:55:00
9:15 AM,55.4,44.6,67,30.20,10.0,SSE,5.8,-,N/A,,Clear,160,2013-09-14 14:15:00
9:35 AM,55.4,41.0,58,30.20,10.0,SSE,4.6,-,N/A,,Clear,160,2013-09-14 14:35:00
9:55 AM,57.2,39.2,51,30.20,10.0,ESE,4.6,-,N/A,,Clear,110,2013-09-14 14:55:00
10:15 AM,57.2,39.2,51,30.19,10.0,East,8.1,-,N/A,,Clear,100,2013-09-14 15:15:00
10:35 AM,59.0,37.4,45,30.19,10.0,SSE,9.2,-,N/A,,Clear,160,2013-09-14 15:35:00
10:55 AM,60.8,39.2,45,30.19,10.0,East,4.6,-,N/A,,Clear,100,2013-09-14 15:55:00
11:15 AM,60.8,37.4,42,30.18,10.0,SSE,6.9,-,N/A,,Clear,160,2013-09-14 16:15:00
11:35 AM,62.6,35.6,37,30.18,10.0,East,6.9,-,N/A,,Clear,90,2013-09-14 16:35:00
11:55 AM,-9999,-9999,N/A,30.18,10.0,SSE,5.8,-,N/A,,Clear,150,2013-09-14 16:55:00
12:15 PM,-9999,-9999,N/A,30.17,10.0,SSE,5.8,-,N/A,,Clear,160,2013-09-14 17:15:00
12:35 PM,-9999,-9999,N/A,30.16,10.0,ENE,3.5,-,N/A,,Clear,70,2013-09-14 17:35:00
12:55 PM,66.2,37.4,35,30.15,10.0,SSE,8.1,-,N/A,,Clear,150,2013-09-14 17:55:00
1:15 PM,66.2,35.6,32,30.15,10.0,SE,9.2,-,N/A,,Clear,130,2013-09-14 18:15:00
1:35 PM,66.2,37.4,35,30.15,10.0,SE,4.6,-,N/A,,Clear,130,2013-09-14 18:35:00
1:55 PM,66.2,35.6,32,30.13,10.0,SW,3.5,-,N/A,,Clear,220,2013-09-14 18:55:00
2:15 PM,68.0,37.4,33,30.13,10.0,South,5.8,-,N/A,,Clear,190,2013-09-14 19:15:00
2:35 PM,68.0,35.6,30,30.12,10.0,ESE,3.5,-,N/A,,Clear,120,2013-09-14 19:35:00
2:55 PM,68.0,35.6,30,30.11,10.0,SSE,6.9,-,N/A,,Clear,150,2013-09-14 19:55:00
3:15 PM,68.0,35.6,30,30.11,10.0,ESE,3.5,-,N/A,,Clear,110,2013-09-14 20:15:00
3:35 PM,69.8,35.6,28,30.10,10.0,South,4.6,-,N/A,,Clear,170,2013-09-14 20:35:00
3:55 PM,69.8,35.6,28,30.10,10.0,South,4.6,-,N/A,,Clear,190,2013-09-14 20:55:00
4:15 PM,69.8,33.8,27,30.09,10.0,Calm,Calm,-,N/A,,Clear,0,2013-09-14 21:15:00
4:35 PM,69.8,33.8,27,30.09,10.0,Calm,Calm,-,N/A,,Clear,0,2013-09-14 21:35:00
4:55 PM,69.8,35.6,28,30.09,10.0,Calm,Calm,-,N/A,,Clear,0,2013-09-14 21:55:00
5:15 PM,69.8,37.4,31,30.09,10.0,SW,5.8,-,N/A,,Clear,220,2013-09-14 22:15:00
5:35 PM,69.8,39.2,33,30.09,10.0,Calm,Calm,-,N/A,,Clear,0,2013-09-14 22:35:00
5:55 PM,68.0,39.2,35,30.09,10.0,Calm,Calm,-,N/A,,Clear,0,2013-09-14 22:55:00
6:15 PM,66.2,42.8,43,30.09,10.0,Calm,Calm,-,N/A,,Clear,0,2013-09-14 23:15:00
6:35 PM,64.4,42.8,45,30.09,10.0,Calm,Calm,-,N/A,,Clear,0,2013-09-14 23:35:00
6:55 PM,60.8,46.4,59,30.09,10.0,NE,3.5,-,N/A,,Clear,50,2013-09-14 23:55:00
7:15 PM,57.2,44.6,63,30.09,10.0,ENE,3.5,-,N/A,,Clear,70,2013-09-15 00:15:00
7:35 PM,55.4,44.6,67,30.09,10.0,East,4.6,-,N/A,,Clear,90,2013-09-15 00:35:00
7:55 PM,55.4,44.6,67,30.09,10.0,East,3.5,-,N/A,,Clear,100,2013-09-15 00:55:00
8:15 PM,53.6,46.4,77,30.09,10.0,SE,5.8,-,N/A,,Clear,130,2013-09-15 01:15:00
8:35 PM,51.8,44.6,76,30.10,10.0,SE,3.5,-,N/A,,Clear,130,2013-09-15 01:35:00
8:55 PM,53.6,44.6,72,30.10,10.0,Calm,Calm,-,N/A,,Clear,0,2013-09-15 01:55:00
9:15 PM,53.6,44.6,72,30.10,10.0,Calm,Calm,-,N/A,,Clear,0,2013-09-15 02:15:00
9:35 PM,51.8,44.6,76,30.09,10.0,SE,3.5,-,N/A,,Clear,140,2013-09-15 02:35:00
9:55 PM,50.0,44.6,82,30.09,10.0,Calm,Calm,-,N/A,,Clear,0,2013-09-15 02:55:00
10:15 PM,51.8,42.8,71,30.09,10.0,Calm,Calm,-,N/A,,Clear,0,2013-09-15 03:15:00
10:35 PM,48.2,42.8,82,30.09,10.0,Calm,Calm,-,N/A,,Clear,0,2013-09-15 03:35:00
10:55 PM,48.2,42.8,82,30.09,10.0,SE,4.6,-,N/A,,Clear,140,2013-09-15 03:55:00
11:15 PM,48.2,42.8,82,30.08,10.0,SSE,3.5,-,N/A,,Clear,150,2013-09-15 04:15:00
11:35 PM,48.2,42.8,82,30.08,10.0,SE,4.6,-,N/A,,Clear,140,2013-09-15 04:35:00
11:55 PM,48.2,41.0,76,30.08,10.0,SSE,6.9,-,N/A,,Clear,160,2013-09-15 04:55:00